This is the latest recevied weather packets stored in our database for station/object SV6AYW-10. If no packets are shown the sender has not sent any weather packets the latest 10 day(s).
| Time | Temp. | Humidity | Pressure | Rain* | Wind** | Luminosity | Snow |
|---|---|---|---|---|---|---|---|
| 1777627899 | 22.22° C | 45% | 1016.2 hPa | - | - | - | - |
| 1777626999 | 21.67° C | 45% | 1016.1 hPa | - | - | - | - |
| 1777626099 | 22.22° C | 44% | 1016 hPa | - | - | - | - |
| 1777625199 | 21.67° C | 45% | 1016 hPa | - | - | - | - |
| 1777624298 | 21.67° C | 43% | 1015.9 hPa | - | - | - | - |
| 1777623398 | 21.67° C | 42% | 1015.8 hPa | - | - | - | - |
| 1777622498 | 21.67° C | 41% | 1015.6 hPa | - | - | - | - |
| 1777621598 | 20.56° C | 39% | 1015.5 hPa | - | - | - | - |
| 1777620698 | 20.56° C | 40% | 1015.5 hPa | - | - | - | - |
| 1777619797 | 21.11° C | 44% | 1015.4 hPa | - | - | - | - |
| 1777618883 | 21.11° C | 52% | 1015.5 hPa | - | - | - | - |
| 1777617982 | 21.11° C | 52% | 1015.5 hPa | - | - | - | - |
| 1777617078 | 21.11° C | 53% | 1015.6 hPa | - | - | - | - |
| 1777616174 | 21.11° C | 56% | 1015.6 hPa | - | - | - | - |
| 1777615306 | 21.11° C | 57% | 1015.6 hPa | - | - | - | - |
| 1777615274 | 21.11° C | 57% | 1015.6 hPa | - | - | - | - |
| 1777614367 | 20.56° C | 55% | 1015.6 hPa | - | - | - | - |
| 1777613466 | 20.56° C | 55% | 1015.7 hPa | - | - | - | - |
| 1777612562 | 20° C | 55% | 1015.7 hPa | - | - | - | - |
| 1777611656 | 20° C | 56% | 1015.6 hPa | - | - | - | - |
| 1777610749 | 20° C | 56% | 1015.5 hPa | - | - | - | - |
| 1777609849 | 20.56° C | 55% | 1015.4 hPa | - | - | - | - |
| 1777608949 | 20.56° C | 56% | 1015.3 hPa | - | - | - | - |
| 1777608049 | 20.56° C | 56% | 1015.3 hPa | - | - | - | - |
| 1777607149 | 20.56° C | 56% | 1015.2 hPa | - | - | - | - |
* Rain since midnight (hover to see other rain measurements)
** Current wind speed in m/s (hover to see current wind gust speed)